Peoria, IL

10:10 PM CST on November 11, 2019 (GMT -0600)
Greater Peoria Regional

Weather History for KPIA - September, 2019

Change the Weather History Date:

Thursday, September 26, 2019

  Actual Average Record
Temperature  
Mean Temperature 64 °F 62 °F  
Max Temperature 73 °F 73 °F 93 °F (1897)
Min Temperature 54 °F 51 °F 29 °F (1928)
Degree Days  
Heating Degree Days 2 5  
Month to date heating degree days 1 60  
Since 1 July heating degree days 1 66  
Cooling Degree Days 0 2  
Month to date cooling degree days 198 110  
Year to date cooling degree days 1180 1017  
Growing Degree Days 14 (Base 50)    
Moisture  
Dew Point 48 °F    
Average Humidity 58    
Maximum Humidity 83    
Minimum Humidity 35    
Precipitation  
Precipitation 0.00 in 0.10 in 2.89 in (1933)
Month to date precipitation 3.73 2.77  
Year to date precipitation 37.25 27.72  
Snow  
Snow 0.00 in 0.00 in 0.00 in ()
Month to date snowfall 0.0 0.0  
Since 1 July snowfall 0.0 0.0  
Since 1 September snowfall 0.0 0.0  
Snow Depth 0.00 in    
Sea Level Pressure  
Sea Level Pressure 29.96 in    
Wind  
Wind Speed 4 mph ()    
Max Wind Speed 13 mph    
Max Gust Speed 18 mph    
Visibility 10.0 miles    
Events      
T = Trace of Precipitation, MM = Missing Value Source: Averaged Metar Reports

Daily Weather History Graph

Daily Weather History Graph

Search for Another Location

Airport or City:

Astronomy

Sep. 26, 2019 Rise Set
Actual Time 6:50 AM CDT 6:49 PM CDT
Civil Twilight 6:22 AM CDT 7:16 PM CDT
Nautical Twilight 5:50 AM CDT 7:48 PM CDT
Astronomical Twilight 5:18 AM CDT 8:20 PM CDT
Moon 3:55 AM CDT (9/26) 6:03 PM CDT (9/26)
Length of Visible Light 12h 53m
Length of Day
11h 59m
Waning Crescent, 6% of the Moon is Illuminated
Sep 26
Waning Crescent
Sep 28
New
Oct 5
First Quarter
Oct 13
Full
Oct 21
Last Quarter

Hourly Weather History & Observations

Time (CDT) Temp. Dew Point Humidity Pressure Visibility Wind Dir Wind Speed Gust Speed Precip Events Conditions
12:54 AM 63.0 °F 51.1 °F 65% 29.90 in 10.0 mi NW 6.9 mph - N/A   Clear
1:54 AM 63.0 °F 50.0 °F 63% 29.91 in 10.0 mi NNW 6.9 mph - N/A   Mostly Cloudy
2:54 AM 62.1 °F 51.1 °F 67% 29.92 in 10.0 mi NW 3.5 mph - N/A   Overcast
3:54 AM 59.0 °F 50.0 °F 72% 29.93 in 10.0 mi Calm Calm - N/A   Clear
4:54 AM 57.9 °F 50.0 °F 75% 29.95 in 10.0 mi NW 4.6 mph - N/A   Clear
5:54 AM 55.9 °F 50.0 °F 80% 29.97 in 10.0 mi NW 4.6 mph - N/A   Clear
6:54 AM 54.0 °F 48.9 °F 83% 29.99 in 10.0 mi Calm Calm - N/A   Clear
7:54 AM 55.0 °F 50.0 °F 83% 30.01 in 10.0 mi SW 3.5 mph - N/A   Clear
8:54 AM 60.1 °F 51.1 °F 72% 30.02 in 10.0 mi WNW 3.5 mph - N/A   Clear
9:54 AM 64.9 °F 50.0 °F 58% 30.03 in 10.0 mi Calm Calm - N/A   Clear
10:54 AM 66.9 °F 46.0 °F 47% 30.04 in 10.0 mi West 5.8 mph - N/A   Clear
11:54 AM 69.1 °F 44.1 °F 40% 30.04 in 10.0 mi Calm Calm - N/A   Clear
12:54 PM 70.0 °F 46.0 °F 42% 30.03 in 10.0 mi WNW 5.8 mph - N/A   Clear
1:54 PM 72.0 °F 46.9 °F 41% 30.01 in 10.0 mi WNW 5.8 mph - N/A   Clear
2:54 PM 72.0 °F 45.0 °F 38% 29.98 in 10.0 mi Variable 6.9 mph - N/A   Clear
3:54 PM 72.0 °F 46.0 °F 40% 29.96 in 10.0 mi WSW 8.1 mph - N/A   Clear
4:54 PM 73.0 °F 45.0 °F 37% 29.94 in 10.0 mi West 3.5 mph - N/A   Clear
5:54 PM 70.0 °F 46.9 °F 44% 29.93 in 10.0 mi South 6.9 mph - N/A   Clear
6:54 PM 66.0 °F 50.0 °F 56% 29.93 in 10.0 mi Calm Calm - N/A   Clear
7:54 PM 61.0 °F 50.0 °F 67% 29.94 in 10.0 mi Calm Calm - 0.00 in   Clear
8:54 PM 62.1 °F 46.0 °F 56% 29.93 in 10.0 mi SE 5.8 mph - N/A   Clear
9:54 PM 61.0 °F 46.0 °F 58% 29.93 in 10.0 mi SSE 4.6 mph - N/A   Clear
10:54 PM 60.1 °F 46.0 °F 60% 29.91 in 10.0 mi ESE 4.6 mph - N/A   Clear
11:54 PM 60.1 °F 45.0 °F 57% 29.91 in 10.0 mi South 6.9 mph - N/A   Clear